Regional Weather Roundup
Issued by NWS

Home | Current Version | Previous Version | Text Only | Print | Product List | Glossary Off
Versions: 1 2 3 4 5 6 7 8 9 10 11 12 13 14 15 16 17 18 19 20 21 22 23 24 25 26 27 28 29 30 31 32 33 34 35 36 37 38 39 40 41 42 43 44 45 46 47 48 49 50

000
ASUS43 KLMK 011310
RWRKY
KENTUCKY REGIONAL WEATHER ROUNDUP
NATIONAL WEATHER SERVICE LOUISVILLE KY
900 AM EDT WED APR 01 2015

NOTE "FAIR" INDICATES FEW OR NO CLOUDS BELOW 12,000 FEET
WITH NO SIGNIFICANT WEATHER AND/OR OBSTRUCTIONS TO VISIBILITY.

KYZ001>023-026-027-061>063-070>075-011400-
WESTERN AND SOUTH CENTRAL KENTUCKY

CITY           SKY/WX    TMP DP  RH WIND       PRES   REMARKS
PADUCAH        MOSUNNY   49  43  80 CALM      30.06R
HENDERSON      SUNNY     48  37  66 E6        30.09F
OWENSBORO      SUNNY     49  39  68 E8        30.11S
HOPKINSVILLE   MOSUNNY   51  37  58 E5        30.08R
BOWLING GREEN  SUNNY     47  39  74 CALM      30.11S
GLASGOW        SUNNY     46  38  76 CALM      30.11F
$$

KYZ024-025-028>034-038-045-046-053-011400-
NORTH CENTRAL KENTUCKY

CITY           SKY/WX    TMP DP  RH WIND       PRES   REMARKS
LOUISVILLE/SDF SUNNY     47  38  71 SE8       30.15R
LOUISVILLE/LOU SUNNY     45  37  73 S5        30.15R
FORT KNOX      SUNNY     46  38  73 E6        30.11F
$$

KYZ035>037-039>044-047>052-055>060-089>105-011400-
NORTHEAST KENTUCKY

CITY           SKY/WX    TMP DP  RH WIND       PRES   REMARKS
LEXINGTON      SUNNY     41  36  82 S3        30.15R
COVINGTON      SUNNY     40  34  79 S6        30.13R
FRANKFORT      SUNNY     42  36  79 SE6       30.14R
$$

KYZ054-064>069-076>088-106>120-011400-
SOUTHEAST KENTUCKY

CITY           SKY/WX    TMP DP  RH WIND       PRES   REMARKS
JACKSON        SUNNY     42  33  70 VRB3      30.13R
LONDON         SUNNY     47  36  65 CALM      30.14R
SOMERSET       SUNNY     43  36  75 CALM      30.16R
MIDDLESBORO    SUNNY     43  37  77 CALM      30.14R
MONTICELLO     SUNNY     45  38  76 CALM      30.16R
$$




USA.gov is the U.S. government's official web portal to all federal, state and local government web resources and services.